Location: Eimen
(51.8766°N, 9.7806°E)
Time: 16:37:13
(UTC+00:00)

FENGYUN 1C DEB - Visible Passes

Search period start: 07 October 2024 00:00
Search period end: 17 October 2024 00:00
Orbit: 832 x 854 km, 98.7° (Epoch: 06 October)

Date Brightness Start Highest point End Pass type
(mag) Time Alt. Az. Time Alt. Az. Time Alt. Az.
07 Oct ? 04:54:02 10° NE 04:57:40 18° E 05:01:17 10° SE visible
07 Oct ? 18:05:32 10° SSW 18:10:18 31° W 18:15:05 10° NNW visible
08 Oct ? 04:40:40 10° NE 04:43:24 14° E 04:46:07 10° ESE visible
08 Oct ? 17:51:04 10° SSW 17:56:07 39° W 18:01:12 10° NNW visible
09 Oct ? 04:28:10 10° ENE 04:29:06 10° E 04:30:02 10° E visible
09 Oct ? 17:36:44 10° S 17:41:59 49° W 17:47:16 10° NNW visible
10 Oct ? 17:22:29 10° S 17:27:51 63° WSW 17:33:16 10° NNW visible
10 Oct ? 19:08:12 10° W 19:09:32 11° W 19:10:52 10° WNW visible
11 Oct ? 17:08:20 10° SSE 17:13:45 80° WSW 17:19:13 10° NNW visible
11 Oct ? 18:52:21 10° WSW 18:55:13 14° W 18:58:06 10° NW visible
12 Oct ? 18:37:14 10° SW 18:40:55 18° W 18:44:38 10° NW visible
13 Oct ? 18:22:23 10° SW 18:26:40 23° W 18:30:57 10° NW visible
14 Oct ? 04:56:04 10° NE 04:59:51 19° E 05:03:36 10° SE visible
14 Oct ? 18:07:43 10° SSW 18:12:25 30° W 18:17:09 10° NNW visible
15 Oct ? 04:42:35 10° NE 04:45:32 15° E 04:48:28 10° ESE visible
15 Oct ? 17:53:12 10° SSW 17:58:12 37° W 18:03:15 10° NNW visible
16 Oct ? 04:29:42 10° ENE 04:31:12 11° E 04:32:41 10° E visible
16 Oct ? 17:38:48 10° S 17:44:00 47° W 17:49:15 10° NNW visible
